www.pogodaiklimat.ru

Погода и климат >> Архив погоды >> Россия >> Красноярский край >> Балахта


ПОГОДА в Балахте

  • Прогноз погоды в Балахте
  • Монитор погоды в Балахте

АРХИВ ПОГОДЫ в Балахте

Время (UTC), дата Ветер
(напр.,м/с)
 
Видим.   Явления Облачность Т
(С)
Тd
(С)
f
(%)
Тe
(С)
Тes
(С)
Комфортность P
(гПа)
Po
(гПа)
Тmin
(С)
Tmax
(С)
R
(мм)
R24
(мм)
S
(см)
03 17.02 штиль 0 20 км 8/0
[Ac trans Ci fib]
-10.5 -13.3 80 -11 -10 1021.5 979.8
06 17.02 Ю 2 20 км 8/8 1000 м
[Sc]
-2.7 -11.7 50 -6 -5 1018.0 977.6
09 17.02 Ю 2 20 км 9/9 1000 м
[Sc]
-1.2 -10.1 51 -4 -4 1016.3 976.2
12 17.02 штиль 0 20 км 9/9 600 м
[Cb cap]
-1.4 -10.4 50 -2 -2 1014.4 974.3 -0.4
15 17.02 Ю 1 20 км 6/6 1000 м
[Sc]
-4.8 -12.5 55 -7 -7 1015.3 974.6
18 17.02 штиль 0 20 км 8/8 1000 м
[Sc]
-6.4 -14.0 55 -7 -7 1013.0 972.3
21 17.02 ЮВ 2 20 км 9/0
[Ac und]
-11.2 -15.6 70 -16 -16 1013.3 971.8
00 18.02 В 2 20 км 4/0
[Ac trans]
-11.8 -16.2 70 -16 -16 1012.4 971.0 -11.9 15
03 18.02 ЮВ 1 20 км 9/0
[Ac lent Ci sp]
-11.4 -15.8 70 -14 -13 1012.2 970.8 -14.0
06 18.02 Ю 2 50 км 9/0
[Cs]
-0.9 -13.9 37 -4 -1 1010.0 970.1
09 18.02 штиль 0 50 км 8/3 1000 м
[Sc Ci sp]
-0.9 -12.1 42 -1 -0 1009.1 969.2
12 18.02 штиль 0 50 км 10/0
[Ac As]
-3.6 -12.7 49 -4 -4 1009.8 969.6 +0.7
15 18.02 Ю 3 50 км 10/0
[Ac As]
-1.9 -12.9 43 -6 -6 1010.2 970.2
18 18.02 штиль 0 50 км 9/0
[Ac As]
-1.5 -12.2 44 -2 -2 1009.9 970.0
21 18.02 штиль 0 50 км 10/10 1000 м
[Sc]
-3.9 -12.6 51 -4 -4 1011.9 971.5
00 19.02 ЮЗ 2 50 км 8/0
[Ci sp]
-4.8 -12.5 55 -9 -9 1013.1 972.5 -4.9 15
03 19.02 З 1 20 км 8/0
[Ac lent Ci sp]
-4.5 -10.6 62 -6 -5 1015.4 974.9 -5.2
06 19.02 З 4 50 км 10/0
[Ac As]
+0.2 -8.2 53 -5 -4 1017.6 977.7
09 19.02 ЮЗ 3 50 км 8/0
[Ac lent Ci sp]
+0.4 -7.0 58 -4 -3 1018.4 978.5
12 19.02 В 1 50 км 10/0
[Cs]
-4.5 -9.7 67 -7 -7 1020.0 979.2 +0.6
15 19.02 В 1 50 км 6/0
[Ci sp]
-6.0 -11.8 64 -8 -8 1021.0 979.9
18 19.02 штиль 0 50 км 10/0
[Cs]
-9.3 -12.8 76 -10 -10 1021.8 980.3
21 19.02 В 1 50 км 10/0
[Cs]
-10.9 -12.2 90 -13 -13 1023.4 981.4
00 20.02 В 2 50 км 4/0
[Ci sp]
-10.8 -12.1 90 -15 -15 1023.6 981.6 -11.8 15
03 20.02 штиль 0 20 км 6/0
[Ci sp]
-12.4 -13.7 90 -12 -11 1024.7 982.6 -13.6
06 20.02 штиль 0 20 км 8/0
[Ci sp]
-2.3 -7.4 68 -3 +1 1023.6 983.0
09 20.02 З 1 20 км 9/0
[Ac lent Ci sp]
-1.1 -7.3 63 -3 -2 1023.1 982.7
12 20.02 штиль 0 20 км 10/0
[Ac As]
-4.4 -8.3 74 -5 -5 1023.0 982.2 -0.5
15 20.02 ЮВ 1 20 км 10/0
[Cs]
-8.0 -10.3 83 -10 -10 1023.1 981.6
18 20.02 штиль 0 20 км 10/0
[Cs]
-10.7 -12.0 90 -11 -11 1023.3 981.3
21 20.02 штиль 0 20 км 10/0
[Cs]
-12.0 -13.3 90 -12 -12 1022.5 980.5
00 21.02 штиль 0 20 км 10/0
[Cs]
-14.0 -15.3 90 -14 -14 1023.0 980.6 -14.1 15
03 21.02 ЮВ 2 4000 м дымка 8/0
[Cs]
-12.3 -12.9 95 -17 -16 1022.9 980.9 -14.2
06 21.02 штиль 0 20 км 8/0
[Cs]
-7.7 -11.7 73 -8 -4 1022.4 981.1
09 21.02 З 1 20 км 8/0
[Cs]
-2.4 -9.2 60 -4 -3 1021.3 980.8
12 21.02 штиль 0 20 км 10/0
[As op]
-4.6 -9.8 67 -5 -5 1023.5 982.7 -1.6
15 21.02 Ю 1 4000 м слаб. ливневой снег 10/10 600 м
[Cb cap]
-4.2 -5.1 93 -7 -7 1026.2 985.2
18 21.02 ЮЗ 1 20 км {ливн. осадки} 10/10 600 м
[Cb cap]
-3.3 -4.7 90 -6 -6 1028.3 987.4
21 21.02 ЮЗ 2 20 км 4/4 600 м
[Cb cap]
-4.8 -8.8 74 -9 -9 1031.1 989.8
00 22.02 ЮЗ 2 20 км 3/3 1000 м
[Sc]
-7.4 -11.3 74 -12 -12 1034.0 992.3 -7.4 0.5 15
03 22.02 ЮЗ 2 50 км ясно -8.0 -13.1 67 -12 -11 1036.1 994.1 -9.9
06 22.02 ЮЗ 4 20 км 6/0
[Ci sp]
-4.3 -11.2 59 -10 -8 1036.4 995.0
09 22.02 ЮЗ 4 50 км 9/0
[Ci sp]
-2.5 -11.8 49 -8 -7 1035.9 994.9
12 22.02 ЮЗ 3 50 км 9/0
[Ac lent Ci sp]
-5.1 -12.5 56 -10 -10 1036.6 995.0 -2.2
15 22.02 ЮЗ 1 50 км ясно -7.4 -13.9 60 -9 -9 1036.6 994.8
18 22.02 штиль 0 50 км 10/0
[As op]
-7.2 -13.6 60 -8 -8 1035.9 994.1
21 22.02 ЮЗ 1 50 км 10/0
[As trans]
-4.6 -11.2 60 -6 -6 1034.4 993.1
00 23.02 ЮЗ 2 50 км 9/0
[Ac As]
-4.7 -11.4 59 -8 -8 1034.3 993.0 -7.9 14
03 23.02 ЮЗ 3 20 км 10/0
[Ac As]
-4.4 -10.9 60 -9 -9 1034.8 993.5
06 23.02 ЮЗ 2 50 км {метель} 9/0
[Ac und]
-2.7 -11.1 52 -6 -5 1034.5 993.5
09 23.02 ЮЗ 2 50 км 10/0
[Ac As]
-1.3 -10.7 49 -4 -4 1033.5 992.7
12 23.02 штиль 0 50 км 9/0
[Ac und]
-1.7 -9.5 55 -2 -2 1032.8 992.0 -1.1
15 23.02 штиль 0 50 км 6/6 1000 м
[Sc]
-5.6 -11.2 65 -6 -6 1032.7 991.3
18 23.02 штиль 0 50 км 10/0
[As trans]
-5.6 -9.4 75 -6 -6 1032.1 990.8
21 23.02 В 2 50 км 10/0
[Ac As]
-7.2 -10.2 79 -12 -12 1030.8 989.1
00 24.02 ЮВ 1 50 км 10/0
[Cs]
-5.2 -10.2 68 -7 -7 1028.5 987.2 -7.6 14

 

Местоположение метеостанции Балахта (Красноярский край, Россия): широта 55.38 долгота 91.67 высота над уровнем моря 321 м.

В архиве по умолчанию представлена погода в Балахте за последнюю неделю. Архивные данные за месяц целиком и за предыдущие месяцы, начиная с января 2011 года, Вы можете получить, выбрав интересующий диапазон дат из раскрывающегося списка и нажав кнопку "Ввод!".


*Определитесь, кто Вы:
робот инопланетянин человек

Внимание! Время в таблицах - всемирное. Для получения местного времени необходимо прибавить поправку, которая равна 7 ч.

Смотрите также архив погоды в соседних городах и на ближайших метеорологических станциях:

Погода в Светлолобово (Красноярский край, Россия) (62 км)
Погода в Шумихе (Красноярский край, Россия) (75 км)
Погода в Кемчуге (Красноярский край, Россия) (80 км)
Погода в Каче (Красноярский край, Россия) (89 км)
Погода в Роевом Ручье (Красноярский край, Россия) (93 км)
Погода в Красноярске (Красноярский край, Россия) (99 км)
Погода в Минино (Красноярский край, Россия) (101 км)
Погода в Емельяново (Красноярский край, Россия) (102 км)
Погода в Первомайском (Хакасия, Россия) (103 км)
Погода в Назарово (Красноярский край, Россия) (111 км)

Пояснения к столбцам:

Ветер - указаны скорость ветра в м/с - средняя за 10 мин, порывы в срок и между сроками (в фигурных скобках) и направление, откуда дует ветер: С - северный, СВ - северо-восточный, В - восточный, ЮВ - юго-восточный, Ю - южный, ЮЗ - юго-западный, З - западный, СЗ - северо-западный.
Видимость - горизонтальная дальность видимости в метрах или километрах. При видимости от 1 до 10 км при отсутствии осадков обычно наблюдается дымка, при ухудшении видимости до 1 км и менее - туман. В сухую погоду видимость может ухудшаться дымом, пылью или мглою.
Явления - указаны атмосферные явления, наблюдавшиеся в срок или в последний час перед сроком; фигурными скобками обозначены явления, наблюдавшиеся между сроками (за 1-3 часа до срока); квадратными скобками обозначены град или гололедные отложения с указанием их диаметра в мм.
Облачность - указаны через наклонную черту общая и нижняя облачность в баллах и высота нижней границы облаков в метрах; квадратными скобками обозначены формы облаков: Ci - перистые, Cs - перисто-слоистые, Cc - перисто-кучевые, Ac - высококучевые, As - высокослоистые, Sc - слоисто-кучевые, Ns - слоисто-дождевые, Cu - кучевые, Cb - кучево-дождевые. Подробнее классификацию облаков см. в Атласе облаков (PDF).
T - Температура воздуха - температура, измеренная на высоте 2 м над землей.
Td - Температура точки росы - температура, при понижении до которой содержащийся в воздухе водяной пар достигнет насыщения.
f - Относительная влажность воздуха - влажноcть воздуха, измеренная на высоте 2 м над землей.
Te - Эффективная температура - температура, которую ощущает одетый по сезону человек в тени. Характеристика душности погоды. При расчете учитывается влияние влажности воздуха и скорости ветра на теплоощущения человека.
Tes - Эффективная температура на солнце - температура, которую ощущает человек, с поправкой на солнечный нагрев. Характеристика знойности погоды. Зависит от высоты солнца над горизонтом, облачности и скорости ветра. Ночью, в пасмурную погоду, а также при ветре 12 м/с и более поправка равна нулю.
P - Атмосферное давление - приведенное к уровню моря атмосферное давление.
Po - Атмосферное давление - измеренное на уровне метеостанции атмосферное давление.
Tmin - Минимальная температура - минимум температуры воздуха на высоте 2 м над землей.
Tmax - Максимальная температура - максимум температуры воздуха на высоте 2 м над землей.
R - Количество осадков - Количество выпавших осадков за период времени, мм. При наведении курсора мыши на число - период времени, за который выпало указанное количество осадков.
R24 - Количество осадков - Количество выпавших осадков за 24 часа, мм.
S - Снежный покров - Высота снежного покрова, см. При наведении курсора мыши на число - состояние снежного покрова и степень покрытия местности в баллах.